Theta_e
318 319 319 321 323 324 328 331 336 338 332 327 327 329 323 326 332 329 331 334 335 333 331 335 338 339 342 346 345 341 340 344 345 341 341 339 336 338 340 339 339 338 339 340 340 340 339 339 339 338 337 335 334 333 334 335 333 333 334 333 332 332 332 333 332 333 334 335 334 334 335 334 332 333 334 334 334 333 331 329 329 329 329 330 330 330 329 329 329 327 325 325 326 326 326 325 324
319 320 321 321 323 324 330 336 336 335 333 326 324 327 324 335 339 332 336 336 335 332 332 337 339 339 339 340 339 344 343 338 339 338 336 335 338 339 339 340 339 338 340 339 339 339 339 339 338 338 336 335 333 333 335 334 333 333 333 332 333 333 333 333 333 333 334 334 334 333 334 334 332 331 332 332 331 331 332 332 331 330 329 329 329 330 329 328 328 326 325 326 327 327 326 324 324
318 320 322 322 324 326 336 340 332 328 328 323 323 328 330 339 339 334 336 335 335 333 334 337 338 337 338 345 343 345 344 337 337 335 335 337 339 339 339 340 339 339 339 339 339 339 338 338 338 337 336 334 333 332 332 333 334 334 333 333 332 333 333 333 333 334 334 333 333 333 333 333 332 331 331 331 331 331 333 333 333 332 330 330 330 330 330 329 329 327 325 326 327 326 325 324 324
318 320 321 322 329 333 341 336 331 329 323 325 325 330 338 339 338 335 335 334 337 337 335 337 338 334 341 350 342 344 343 337 337 334 335 338 338 339 340 340 339 339 338 338 338 338 338 338 338 337 335 334 333 332 332 333 334 334 333 333 333 333 334 333 332 333 333 333 333 334 333 333 332 332 333 333 332 333 333 333 333 333 330 329 329 329 329 327 326 325 324 326 326 324 323 323 323
319 321 320 322 331 332 333 327 334 333 320 330 329 331 339 336 339 337 334 334 336 339 335 338 338 334 340 343 340 346 343 337 336 333 335 338 338 339 340 340 339 338 338 337 337 337 337 337 337 336 335 334 333 333 334 335 334 333 332 332 332 332 332 333 333 332 332 333 332 333 332 332 332 331 331 331 332 333 333 334 334 334 331 328 328 328 328 325 323 322 322 324 324 323 323 323 323
320 321 322 324 324 324 331 325 329 331 322 334 333 334 340 335 338 337 334 333 335 337 336 342 339 338 341 338 338 342 338 337 337 333 336 339 340 340 340 339 338 338 337 337 337 336 336 337 336 336 335 335 333 332 334 335 334 333 332 333 332 331 331 331 331 331 331 332 332 332 332 331 331 330 330 330 331 332 333 334 334 333 332 329 328 328 328 326 324 322 320 322 322 322 323 323 323
322 322 327 329 326 327 334 325 326 331 322 331 337 337 339 335 336 335 335 330 331 332 335 342 339 343 343 337 340 337 334 337 334 334 338 340 340 339 339 338 338 338 337 337 336 335 335 336 336 336 336 336 334 331 332 334 334 332 332 332 331 330 329 330 330 331 332 332 332 331 332 331 331 331 331 330 330 332 333 332 332 332 330 329 328 328 329 327 324 322 320 320 320 322 323 323 323
322 322 329 333 332 334 333 326 331 332 318 323 335 335 336 336 335 336 337 329 328 331 331 334 338 348 340 338 345 338 333 335 334 335 337 340 340 339 338 337 337 338 337 337 335 335 333 334 336 336 336 336 334 332 331 333 333 332 332 331 330 330 329 331 331 331 331 331 331 330 331 330 329 331 331 331 329 330 331 330 330 329 328 327 326 327 328 327 325 322 320 319 320 321 322 323 323
321 322 330 332 330 336 338 331 328 326 318 322 328 332 335 334 335 335 334 330 329 332 329 327 340 350 340 341 343 336 332 334 334 334 335 338 339 339 338 337 337 338 338 336 335 334 332 333 336 336 336 336 335 333 330 331 332 331 331 331 331 330 330 331 331 331 331 330 331 330 330 330 330 331 331 331 331 330 330 330 329 328 327 327 326 327 328 326 325 322 319 319 319 320 322 323 324
325 324 327 334 331 330 334 332 328 323 317 322 323 329 334 330 330 330 331 330 330 332 326 328 344 347 341 341 340 336 333 332 333 333 334 335 336 337 337 337 337 337 337 335 333 332 332 334 335 335 335 335 336 333 329 330 332 331 331 331 331 330 331 332 331 332 331 329 330 329 329 329 329 329 330 330 331 331 331 331 330 328 327 327 326 326 325 324 323 321 319 319 319 320 321 322 323
333 333 329 336 332 325 328 332 334 327 320 323 321 322 328 327 326 326 331 330 330 332 324 330 343 343 341 341 338 335 332 332 333 333 334 333 334 335 336 337 336 336 335 333 330 330 333 335 335 335 334 335 335 331 329 331 331 331 330 331 331 330 332 332 332 332 330 329 328 328 328 328 328 329 330 329 330 330 331 331 330 329 328 326 325 324 323 322 322 320 318 319 319 319 319 320 321
330 335 333 333 330 328 331 331 330 330 331 329 321 321 322 325 326 327 331 330 331 332 325 328 337 342 343 342 338 332 331 332 333 333 334 333 333 333 335 336 335 334 333 332 329 330 335 335 335 335 334 334 333 331 330 331 331 330 329 330 331 331 331 332 331 330 329 328 328 328 328 327 327 328 329 329 329 329 330 330 329 329 328 326 324 323 321 319 319 318 318 319 319 319 320 320 320
328 331 331 330 333 332 330 328 328 331 335 329 322 324 323 325 328 326 330 332 332 331 325 323 331 343 344 340 338 332 331 332 332 333 332 333 333 333 334 334 334 333 333 333 329 331 335 335 335 335 335 333 332 330 330 331 331 330 328 329 331 331 330 331 330 330 328 327 327 326 326 325 325 327 328 328 328 329 329 329 329 328 327 326 324 321 318 317 317 318 318 319 319 320 320 321 321
328 328 327 329 334 332 327 327 329 328 326 325 324 325 325 326 326 324 329 332 331 329 323 320 331 346 343 338 338 334 333 331 332 332 331 333 333 334 334 334 334 333 333 331 329 332 335 335 335 336 335 333 331 330 330 330 330 330 328 328 330 330 329 329 329 329 327 327 325 323 323 324 324 325 325 326 327 328 328 328 328 327 326 323 320 317 316 317 318 318 319 318 320 321 321 321 322
326 332 330 329 331 329 328 326 328 329 323 324 323 324 326 323 324 326 330 333 330 327 322 320 328 332 336 343 344 336 333 330 331 332 332 333 334 334 334 334 333 332 332 329 330 333 335 335 336 336 335 333 330 329 329 329 330 329 328 327 329 328 328 328 328 327 325 324 323 322 322 324 325 326 325 325 325 325 326 326 326 324 321 318 316 316 317 318 318 318 318 318 321 322 322 322 322
327 335 332 328 329 328 328 324 324 326 322 324 322 323 326 321 324 326 324 331 329 325 326 324 323 323 333 346 346 335 332 330 331 332 332 333 334 334 334 334 333 332 331 329 331 334 334 335 336 336 334 332 330 329 328 329 329 329 329 327 326 327 328 328 328 326 324 321 320 320 322 324 325 326 326 325 324 324 323 323 322 319 316 316 316 317 318 318 318 318 317 319 322 323 323 323 323
332 333 331 328 328 328 329 324 322 325 323 323 321 322 326 321 322 321 319 328 328 328 335 329 326 332 338 339 337 334 332 331 331 332 332 332 334 334 334 334 333 333 333 331 331 333 333 334 335 335 334 332 331 330 329 329 329 330 329 327 325 326 327 328 329 326 324 322 319 318 320 323 324 325 324 323 323 322 320 319 317 316 316 317 318 318 318 317 317 317 318 320 322 323 323 324 323
334 332 330 329 330 330 330 325 323 325 321 321 319 322 328 323 323 321 320 325 327 330 334 334 336 336 334 333 333 334 332 331 332 332 331 331 332 334 335 335 335 334 333 332 332 332 333 333 334 335 334 332 331 331 329 328 329 329 329 328 326 327 327 327 329 326 324 323 320 317 317 321 322 323 322 321 321 319 318 317 316 316 317 318 318 317 317 316 316 317 320 321 322 323 323 324 323
332 335 329 332 336 330 325 322 320 319 318 320 317 319 325 323 323 322 321 323 325 332 330 335 347 340 333 333 333 333 331 331 331 331 331 330 330 331 333 335 335 335 334 333 333 333 332 333 334 334 334 332 331 331 329 328 328 327 327 328 327 327 327 327 328 326 325 325 321 317 316 317 318 318 318 318 317 317 317 317 317 317 317 317 317 316 315 315 316 318 321 322 322 322 323 324 323
330 334 329 334 337 324 318 319 318 317 318 319 317 318 319 318 321 321 322 323 324 333 332 336 347 342 336 333 331 331 330 330 331 330 330 330 330 330 331 333 334 335 335 334 333 334 333 333 333 333 333 332 332 331 330 328 327 327 326 326 327 326 326 327 328 326 326 325 322 319 317 317 317 315 315 315 316 317 317 317 318 317 317 317 316 315 315 315 317 321 323 323 323 323 323 323 323
325 328 330 333 330 320 316 317 318 318 317 318 319 318 317 316 317 320 322 322 322 327 329 337 347 342 337 333 330 331 329 329 330 329 329 329 330 329 330 332 333 334 334 334 334 334 334 333 333 333 333 332 332 331 330 328 328 327 325 325 326 326 326 326 327 326 326 324 323 322 321 320 321 318 315 315 316 317 318 318 317 317 316 316 315 315 315 316 319 323 324 324 324 324 324 323 323
324 325 329 329 323 318 317 318 320 321 319 320 321 317 317 316 316 320 321 323 326 326 324 331 342 339 335 333 331 330 329 329 329 328 329 329 329 329 330 330 331 331 332 334 334 334 334 332 332 332 333 333 332 331 330 329 328 328 327 326 326 326 325 325 326 326 326 324 324 325 323 323 324 322 318 316 316 317 317 317 317 316 316 315 315 315 316 319 322 324 324 324 324 324 325 324 323
326 326 327 326 320 318 318 319 321 322 322 322 321 319 319 318 318 319 319 322 327 327 325 327 335 335 333 333 331 331 330 329 328 328 328 328 329 329 329 329 330 330 330 332 333 334 333 332 331 331 333 333 332 332 331 330 329 329 328 327 326 325 324 324 325 324 324 323 324 325 326 325 325 325 321 317 316 317 317 317 316 316 316 315 316 315 316 321 324 324 324 325 324 324 325 325 324
325 327 327 326 321 318 320 322 320 322 323 321 320 320 320 321 319 318 318 321 323 323 317 316 327 333 332 332 332 332 331 330 330 329 329 329 329 329 329 329 330 330 330 330 331 333 332 332 331 330 332 332 332 332 331 330 330 328 327 326 325 324 322 322 323 322 322 322 322 324 325 325 325 325 324 319 316 316 316 317 317 317 316 316 316 316 318 323 324 324 325 325 324 324 324 324 324
324 326 327 323 320 320 323 323 322 323 324 321 320 320 324 324 319 316 318 322 323 319 313 314 325 333 333 334 333 331 330 330 330 330 329 329 329 329 328 329 329 329 329 329 330 331 331 331 331 330 331 332 332 332 332 331 329 327 326 326 326 324 320 319 321 322 321 322 322 323 324 324 325 324 325 322 318 316 317 317 318 317 317 317 316 317 321 324 325 324 325 324 324 324 324 323 323
325 325 325 322 319 321 323 322 323 325 325 323 322 324 329 326 318 318 320 321 320 317 320 325 329 335 336 334 333 331 331 331 330 331 330 329 329 328 328 328 329 329 329 330 329 329 330 330 330 330 331 332 333 333 333 330 328 326 326 327 326 326 321 317 321 324 323 322 322 323 324 324 325 324 324 323 319 317 318 319 319 319 318 319 317 318 323 325 325 325 325 325 324 324 324 324 323
327 323 322 321 321 323 323 323 325 327 326 326 325 327 332 326 318 321 324 323 320 317 324 329 329 336 337 334 334 331 331 331 331 331 330 330 329 328 329 328 328 329 329 329 329 329 329 330 330 329 330 332 333 333 332 330 328 327 326 326 326 326 324 319 321 324 324 323 323 323 323 324 325 324 324 323 318 317 319 319 320 320 319 319 319 321 324 324 324 325 325 325 325 324 323 323 323
325 323 321 321 323 324 325 326 327 326 326 327 327 327 329 324 318 322 325 322 320 318 325 330 330 334 335 336 334 331 332 331 331 332 331 331 330 329 329 329 328 329 329 329 329 329 329 329 329 329 329 331 332 331 331 329 328 327 326 326 326 326 326 323 322 322 323 324 323 323 323 323 324 323 322 321 318 316 318 319 320 321 319 319 321 323 325 324 324 325 325 325 324 323 321 322 322
323 322 322 322 323 324 326 328 328 326 325 326 325 326 326 324 322 322 323 321 319 318 323 330 330 330 332 335 334 332 331 331 331 331 331 331 331 330 329 330 329 328 329 329 329 329 328 329 328 329 329 329 330 329 329 329 327 327 326 326 326 326 326 324 323 322 321 322 322 321 321 321 321 321 319 320 319 317 317 318 320 320 319 320 323 325 325 325 325 324 325 324 324 322 321 322 321
323 322 322 324 324 323 325 327 327 326 326 327 326 327 327 325 326 324 324 323 320 320 321 325 327 328 329 331 334 334 330 330 331 331 332 332 332 331 329 330 330 329 329 329 330 329 329 329 328 329 328 328 329 328 328 328 328 327 325 325 326 326 326 324 323 323 319 319 321 321 321 319 319 320 320 322 321 318 316 317 318 319 319 321 324 325 325 325 325 324 324 323 324 323 323 323 321
325 323 323 327 326 323 324 327 327 326 327 328 326 327 328 325 327 327 326 324 321 322 322 320 321 324 327 329 332 334 331 330 331 331 332 332 332 331 330 330 331 330 329 329 330 330 329 329 328 328 328 328 328 328 328 327 327 327 324 325 326 325 326 325 323 322 319 318 321 321 319 315 317 321 322 323 323 322 320 318 317 317 321 324 325 325 325 325 324 323 323 323 324 323 323 323 321
327 326 327 328 327 326 328 327 325 325 324 325 326 328 327 324 326 328 327 326 321 322 322 319 318 319 323 327 329 332 332 330 330 331 332 332 333 332 332 330 330 331 330 330 330 329 330 329 329 329 329 328 328 328 328 327 326 324 323 325 327 325 325 325 323 321 319 320 322 321 315 311 316 321 323 323 324 323 322 321 317 317 323 325 325 325 325 325 324 323 323 324 324 323 323 322 322
327 329 331 329 328 329 332 331 326 324 323 322 325 327 327 326 326 322 322 323 320 320 321 319 318 318 320 323 326 329 331 330 329 330 331 332 332 333 333 332 330 331 331 331 330 330 330 330 330 329 329 329 329 328 327 327 326 323 323 325 327 326 325 323 321 320 320 320 321 319 314 312 315 321 323 324 324 324 323 323 322 322 325 325 325 325 325 324 323 323 324 324 323 323 322 322 322
329 329 332 330 328 329 331 333 329 325 324 323 323 324 324 326 326 322 319 320 321 320 320 319 317 318 319 320 323 326 329 331 329 328 330 332 332 333 333 333 332 331 331 332 331 330 330 330 330 329 330 329 329 328 328 327 326 324 323 325 327 326 325 322 319 319 318 318 319 316 314 314 315 318 323 325 325 325 324 323 324 325 325 325 325 325 325 325 323 324 324 323 323 323 322 322 322
330 328 330 331 329 329 330 332 331 326 325 324 323 323 323 323 325 324 320 318 320 321 320 319 317 317 319 319 320 323 327 329 328 327 329 331 331 332 332 333 333 332 332 332 331 330 330 330 330 329 330 329 329 328 328 328 327 326 325 326 327 327 326 324 320 317 315 315 316 315 315 317 317 316 321 325 325 325 325 324 323 325 326 325 325 325 325 324 324 324 323 323 323 323 322 322 322
328 327 329 331 331 332 329 329 329 325 325 325 322 321 323 322 321 321 319 317 318 320 320 319 318 316 318 319 320 321 325 327 326 326 328 330 331 331 332 333 333 333 333 333 332 331 330 329 329 329 330 329 329 329 328 328 327 327 327 327 327 327 326 325 320 316 314 315 315 315 316 318 320 318 319 323 325 324 325 325 323 324 326 325 325 325 325 325 324 324 323 323 323 323 323 323 323
327 327 328 329 332 333 330 328 327 321 323 326 323 321 321 320 320 319 318 317 317 318 318 317 317 316 316 318 320 321 323 325 324 325 327 328 330 331 331 332 332 333 333 333 333 332 331 330 330 330 330 329 329 329 328 328 327 327 327 327 327 327 326 325 323 318 315 315 314 315 317 318 320 320 319 320 323 323 324 325 324 324 326 326 325 326 325 325 324 324 323 323 323 323 323 323 324
328 328 328 329 331 333 331 329 325 319 321 325 324 322 321 320 320 319 318 318 319 318 317 317 316 316 315 316 318 320 321 323 324 325 325 327 329 330 331 331 332 333 333 333 333 333 332 331 331 331 330 330 329 329 329 328 327 327 327 327 326 327 326 325 324 320 317 316 314 314 317 318 319 321 320 319 320 322 324 325 325 325 326 326 326 326 326 325 324 324 324 323 324 324 323 323 324
330 330 330 331 332 331 330 328 321 317 320 327 327 324 322 321 319 320 320 319 319 318 318 319 318 317 315 315 315 317 320 323 325 326 324 325 328 329 330 331 331 332 332 333 333 333 333 332 332 331 330 330 330 329 329 328 328 327 327 327 326 326 326 325 324 322 320 319 317 316 316 318 319 319 320 319 319 321 323 325 325 325 326 326 326 326 326 326 325 324 324 324 324 324 324 324 324
332 333 332 333 333 332 334 331 322 318 321 326 327 325 323 322 320 320 320 319 320 320 321 320 320 319 317 316 315 316 318 321 323 326 325 324 326 328 329 330 331 332 331 332 333 333 333 332 332 332 331 330 330 329 329 329 329 328 327 326 326 326 326 326 326 325 324 323 322 319 317 317 319 318 319 320 320 320 322 324 324 325 325 326 326 326 326 326 326 325 324 324 324 324 325 324 325
331 332 332 333 333 332 335 331 322 321 323 321 322 326 327 324 323 322 320 319 320 320 321 321 322 321 320 320 319 317 316 318 320 324 325 323 325 327 328 330 330 331 331 332 332 333 333 333 332 332 331 331 330 330 330 329 328 328 327 326 326 326 326 325 326 325 325 324 324 321 319 318 318 318 318 320 322 322 322 323 323 325 325 326 326 327 327 326 326 326 324 324 324 324 325 324 325
332 331 331 332 332 333 332 327 323 325 329 324 321 329 335 332 327 325 321 320 320 318 319 320 320 321 321 321 320 319 316 316 318 321 323 323 324 326 328 329 330 330 331 331 332 333 333 332 332 332 331 331 331 330 330 329 328 328 327 327 326 326 326 325 325 325 324 324 323 321 320 318 318 319 320 322 324 324 324 324 324 324 324 325 326 327 327 326 326 326 325 324 324 324 324 324 324
332 330 329 331 333 334 330 324 326 331 333 327 320 327 337 334 328 327 324 322 322 320 320 320 318 318 320 320 319 319 317 315 316 318 321 321 323 326 327 328 330 330 331 331 332 332 332 332 332 332 332 331 331 331 330 329 329 328 328 327 327 326 326 325 325 325 324 323 322 322 320 319 318 320 322 324 324 324 325 325 325 325 324 324 325 326 326 326 326 326 326 325 325 325 325 324 324
332 330 329 330 332 334 330 325 329 333 332 327 320 322 330 329 326 326 326 325 325 324 323 321 319 318 318 319 319 319 318 316 315 316 319 321 322 324 326 327 329 330 330 331 331 331 332 332 332 332 332 331 331 331 331 330 329 329 328 328 327 327 326 326 326 325 325 324 323 323 322 321 320 321 323 325 325 325 325 326 327 326 325 325 325 326 326 326 326 326 326 326 325 325 325 325 324
331 330 329 328 330 335 332 330 331 330 331 332 325 321 326 330 330 327 324 326 329 327 326 324 322 320 318 318 318 318 318 317 316 315 316 317 319 323 326 327 328 329 330 330 331 331 331 331 332 331 331 331 331 331 331 331 330 330 329 329 328 328 327 327 326 326 325 325 325 324 324 323 323 323 325 326 325 325 325 326 327 327 326 326 326 326 325 326 326 326 326 326 326 325 325 325 325
329 329 330 330 331 334 333 335 334 330 331 335 329 324 329 335 336 330 324 326 329 326 324 323 323 322 320 318 318 318 318 318 317 316 314 314 317 322 325 326 328 329 329 330 330 330 330 330 331 331 331 331 331 331 331 331 331 331 330 330 329 329 328 327 327 326 326 326 326 326 325 325 325 326 326 326 326 326 326 327 327 328 327 327 327 326 326 326 326 326 326 326 326 325 326 326 325
329 330 332 332 331 331 332 333 332 332 333 335 331 326 329 335 335 331 327 329 329 325 323 322 320 321 320 318 318 318 318 319 318 316 313 312 314 319 324 326 327 328 329 329 329 329 330 330 330 330 331 331 330 331 331 331 331 331 331 331 330 330 329 328 328 327 327 328 327 327 327 327 327 327 328 328 327 327 327 327 328 328 328 328 328 327 326 326 326 326 326 326 326 325 326 326 325
331 333 333 332 330 330 331 329 329 335 336 332 331 327 328 333 332 329 329 328 327 324 323 323 322 321 320 319 319 318 318 319 319 318 315 314 315 317 321 325 326 327 328 328 329 329 329 329 329 330 330 330 330 330 330 331 331 331 331 331 331 330 330 329 329 328 328 328 328 328 328 328 328 328 328 328 329 328 328 328 328 328 328 328 328 328 327 327 327 327 326 326 326 325 326 326 325
330 332 332 332 332 331 333 332 331 336 333 325 325 327 328 331 329 327 328 326 326 325 321 321 322 321 321 321 321 320 320 320 320 319 317 317 318 317 319 323 325 326 327 328 328 328 329 329 329 329 329 329 329 329 329 330 330 331 331 330 331 330 330 329 329 328 329 329 329 329 329 329 329 329 329 329 329 329 329 329 329 329 328 328 328 328 328 328 327 327 327 326 326 326 326 326 326
328 328 330 331 333 334 335 334 333 334 330 322 321 327 329 329 329 328 325 323 325 324 321 320 321 321 322 323 322 323 324 323 321 319 317 318 318 315 317 322 324 325 326 327 328 328 328 329 328 328 329 329 329 329 329 329 330 330 331 330 330 330 330 329 329 328 328 328 329 329 329 329 329 329 329 329 329 329 329 329 329 329 329 329 329 328 328 328 327 327 327 326 326 326 326 326 326
327 327 329 329 331 333 332 333 334 333 329 322 321 327 331 332 330 326 324 324 323 322 321 320 318 319 320 321 321 324 327 325 324 320 317 316 313 311 315 319 322 324 326 326 327 328 328 328 328 328 329 329 328 328 328 328 329 329 330 330 330 330 330 329 329 328 328 328 329 329 329 330 329 329 329 329 329 329 329 329 329 329 329 329 329 329 329 328 328 327 327 327 327 327 327 327 326
326 328 329 328 330 332 330 329 331 330 328 324 323 326 330 330 326 321 320 322 321 320 318 317 317 317 318 320 320 321 321 323 328 326 322 317 310 308 311 314 319 323 324 326 326 327 327 327 327 328 328 328 328 328 328 328 328 329 329 330 330 330 330 329 329 328 328 328 328 329 329 329 329 329 329 329 329 329 329 329 330 329 329 329 329 329 329 329 328 328 327 327 327 327 327 327 327
326 328 330 327 329 333 331 326 324 328 330 327 325 326 328 328 325 321 321 323 323 322 319 319 321 319 317 319 320 321 321 322 328 331 328 322 311 307 309 310 314 318 321 324 325 326 327 327 327 327 327 328 327 327 328 328 328 328 328 329 329 329 329 329 329 328 328 328 328 328 329 329 329 329 329 330 329 329 330 329 330 330 330 330 329 329 329 329 329 328 327 328 327 327 327 327 326
326 327 328 324 327 333 335 330 326 328 330 329 326 326 327 328 328 325 323 324 323 322 321 321 323 322 321 322 321 322 322 320 324 328 327 322 311 305 308 309 310 314 317 321 323 325 327 326 327 327 326 327 327 327 328 328 328 328 328 329 329 329 329 329 329 329 328 328 328 328 328 328 328 329 329 330 329 330 330 330 330 330 330 330 329 329 329 329 328 328 328 328 328 327 327 327 326
326 326 324 327 330 331 333 332 329 329 329 330 329 326 325 325 326 326 324 325 324 321 321 323 323 323 323 326 326 322 320 319 323 326 326 325 313 305 307 310 310 311 312 315 318 321 324 325 326 327 327 327 327 327 327 327 328 328 328 328 329 329 329 329 329 329 328 328 328 328 328 328 328 329 329 329 329 329 330 330 330 330 330 330 329 329 329 329 328 327 327 327 327 327 327 326 325
327 324 323 328 329 328 329 327 329 331 326 327 328 327 328 325 321 322 323 326 326 324 325 326 326 323 321 322 325 324 321 321 326 327 328 330 316 304 306 309 309 311 311 312 314 317 320 323 325 326 326 327 327 326 327 327 327 327 327 328 328 328 329 329 329 329 329 329 328 328 328 328 328 328 329 329 329 329 329 329 329 329 329 329 329 329 328 328 328 327 327 327 327 327 326 326 325
328 326 326 328 326 328 329 326 332 335 327 328 328 324 329 330 321 319 321 321 323 323 323 323 325 326 324 321 320 323 322 323 331 334 336 337 318 304 306 309 309 310 311 311 312 313 317 320 323 325 325 325 326 326 326 326 326 326 327 327 328 328 328 328 329 329 329 329 329 328 328 328 328 328 329 329 329 329 329 329 328 328 329 329 328 328 328 328 328 327 327 327 327 327 326 325 324
326 327 326 327 326 327 329 328 332 333 328 333 332 324 328 330 320 317 319 320 320 321 321 323 325 329 331 325 320 320 321 328 339 340 341 339 319 307 309 311 310 311 310 310 310 310 312 314 318 321 323 324 325 325 326 326 326 326 327 327 327 327 328 328 329 329 329 329 329 329 329 328 329 329 328 328 328 329 329 328 328 328 328 328 328 328 328 328 327 327 326 325 325 325 325 324 323
Wind_Speed
12 12 11 10 11 7 3 4 2 2 3 2 2 1 1 2 1 2 2 2 3 2 3 3 4 4 6 6 8 6 3 1 3 4 2 3 13 21 15 15 21 20 19 17 16 14 13 12 13 13 13 12 12 14 15 13 14 15 13 13 14 15 15 16 16 17 16 15 15 15 15 15 15 16 15 15 16 17 17 17 17 17 17 17 17 17 17 17 17 16 17 18 18 18 18 19 18
12 11 10 9 8 5 1 3 4 3 5 3 2 2 2 3 4 1 2 2 3 2 2 6 9 10 10 9 7 5 4 3 2 3 2 11 20 18 14 17 21 20 20 18 16 15 14 14 13 13 13 12 13 13 15 14 14 14 13 13 14 14 15 15 16 17 16 16 16 16 15 15 16 15 15 15 15 16 15 16 17 18 18 17 17 17 16 16 16 16 17 17 17 17 18 19 19
13 11 11 9 6 4 1 3 4 2 4 3 2 2 1 3 4 3 3 2 3 5 5 8 8 6 6 5 4 3 1 4 1 3 5 17 17 15 17 18 20 20 19 18 16 15 15 15 14 13 13 13 13 13 15 15 13 12 13 14 15 15 15 16 15 16 16 16 17 16 16 15 15 16 15 15 15 15 15 15 17 18 18 18 17 16 16 16 16 15 16 17 17 17 18 19 19
13 11 10 6 4 4 3 4 2 4 2 1 2 4 2 4 6 4 3 2 3 2 3 4 5 2 4 6 2 3 2 1 1 4 5 13 15 18 21 18 20 19 18 17 15 15 14 15 14 14 13 13 13 13 14 14 13 13 13 14 15 15 15 16 15 16 16 16 17 16 16 15 16 16 15 14 14 14 14 15 17 18 17 17 17 16 15 15 15 15 16 16 16 17 18 18 18
12 10 6 3 3 2 3 2 2 4 1 3 3 4 4 4 6 5 2 3 3 4 3 3 3 2 4 4 2 2 3 3 2 4 8 13 19 22 21 20 20 18 17 16 14 14 13 13 13 13 13 13 13 13 13 12 12 12 12 13 14 14 14 15 15 16 16 17 17 16 15 16 15 14 14 14 13 13 14 14 15 17 17 17 17 16 15 14 14 15 16 16 16 17 17 17 17
11 7 3 4 2 1 3 2 2 2 3 5 4 4 6 4 5 5 1 2 4 5 4 4 3 3 3 2 2 2 4 3 5 7 13 20 23 23 22 21 20 18 17 14 12 12 11 12 12 13 12 12 12 12 13 12 11 11 11 13 14 14 14 14 15 15 15 16 16 15 15 15 15 14 13 13 13 13 14 14 15 16 17 16 16 16 15 14 14 15 15 16 16 16 16 16 16
11 6 2 4 2 2 4 2 1 3 2 5 5 6 7 5 5 5 3 2 4 5 5 3 5 7 2 1 2 2 4 4 8 12 18 24 24 24 24 21 20 19 17 14 12 11 11 11 12 13 12 11 11 12 13 13 11 11 11 12 13 13 14 14 14 15 15 15 15 16 16 15 15 14 13 12 13 13 13 14 14 15 15 15 14 14 14 13 13 14 15 15 15 15 15 15 15
8 4 1 3 2 3 4 0 3 3 0 2 4 6 8 7 6 4 2 2 1 2 5 2 5 6 1 1 1 5 1 8 11 17 22 24 25 25 24 21 20 19 17 15 13 12 12 12 13 13 12 12 11 11 12 12 11 11 11 11 12 13 14 14 15 15 15 16 15 15 15 15 15 14 13 12 13 12 12 12 12 12 12 12 13 13 13 12 12 13 14 15 14 14 14 14 14
5 3 1 3 2 2 2 3 3 3 1 1 3 4 6 7 6 5 4 2 2 2 4 1 3 5 1 4 1 5 3 9 15 20 23 24 26 25 22 20 19 20 18 16 14 13 13 14 15 14 13 12 12 11 11 12 11 11 12 11 12 14 14 14 14 14 14 14 14 13 14 14 14 13 12 12 12 12 12 12 12 11 11 12 12 13 12 12 11 12 14 15 14 14 13 13 12
4 3 1 2 2 2 3 3 2 1 1 1 3 4 5 5 4 6 7 4 3 4 2 0 5 6 4 4 0 3 4 14 19 21 22 23 23 23 22 19 18 19 19 16 14 14 16 16 16 15 14 14 12 11 11 12 12 12 12 12 13 14 14 14 13 13 13 13 13 13 14 14 14 12 12 12 11 11 12 12 11 11 11 11 11 11 10 11 11 12 14 14 14 14 13 12 11
2 3 2 3 2 1 1 2 4 3 3 2 1 3 4 5 5 4 7 5 1 4 3 2 6 5 5 2 1 2 9 18 22 22 21 20 19 20 21 20 19 18 17 16 14 16 18 18 17 16 15 15 13 11 12 12 12 12 12 11 12 13 13 13 12 12 12 12 13 13 14 14 14 12 11 12 11 11 11 11 11 10 10 10 10 9 9 10 11 12 14 14 14 14 13 12 11
1 3 3 3 1 2 2 2 4 3 5 3 2 3 3 5 6 6 7 6 2 3 2 1 5 5 4 1 1 4 12 18 22 23 20 18 17 18 19 20 18 16 15 14 15 18 19 19 18 17 16 15 13 12 12 13 13 12 11 10 11 12 12 12 12 11 11 12 13 13 13 14 13 12 11 11 11 10 10 10 10 9 9 8 9 9 9 11 12 13 13 13 14 14 13 12 12
2 1 4 2 2 3 3 2 3 1 4 2 4 4 2 4 4 8 7 6 5 4 1 3 7 6 4 1 2 4 10 18 22 21 18 16 17 18 18 18 17 15 13 12 15 18 19 19 19 17 16 15 13 13 13 14 14 12 10 10 11 12 11 11 11 10 10 11 13 12 13 13 13 12 12 12 11 11 10 10 9 9 8 8 9 9 10 11 12 13 13 13 14 14 13 13 13
2 1 3 1 1 3 2 1 1 2 3 4 3 4 2 2 2 6 7 7 3 4 2 3 8 6 3 2 2 3 10 20 23 18 15 15 20 20 18 17 15 14 12 12 16 19 19 19 19 18 17 16 14 13 14 15 14 13 11 10 12 12 11 11 11 11 10 10 11 11 11 12 13 13 13 12 12 12 12 11 10 9 9 10 11 11 11 12 13 12 12 13 13 14 13 13 13
2 1 3 1 1 1 1 1 2 4 4 4 3 1 3 1 2 4 6 7 3 4 1 3 5 3 3 6 5 7 16 24 21 17 16 18 21 19 18 17 15 14 13 14 17 19 19 19 19 17 17 16 15 14 14 15 14 13 12 11 12 11 11 11 11 10 9 9 9 10 11 12 13 13 12 12 11 12 12 12 10 10 11 12 13 12 12 12 12 12 12 12 13 13 12 11 10
3 3 4 1 1 0 3 1 3 3 3 4 3 1 4 2 2 4 2 6 3 2 2 1 0 1 7 8 8 16 25 26 21 19 20 20 20 19 18 17 16 15 14 16 19 19 18 19 19 17 17 16 15 14 14 15 13 13 12 11 11 11 11 10 10 9 8 7 8 10 11 12 12 12 11 10 10 11 11 11 10 11 12 13 13 13 12 12 11 11 11 11 12 11 9 9 7
3 4 2 1 2 2 3 2 3 3 4 4 3 2 5 1 1 1 1 5 5 2 4 1 3 2 6 5 9 25 30 26 23 23 23 20 20 21 20 19 18 17 17 18 19 20 19 19 19 18 17 16 15 14 14 14 13 13 12 11 10 11 11 10 10 10 9 7 8 9 10 11 12 11 10 9 10 10 10 10 11 12 13 13 13 12 11 11 10 10 10 10 10 9 8 8 7
2 3 2 2 2 3 4 5 5 3 2 4 3 2 7 4 1 1 2 6 5 4 5 3 5 6 2 4 16 30 31 28 26 25 24 21 21 21 21 22 22 21 21 20 20 20 20 20 19 19 18 17 16 15 15 15 14 13 13 12 11 11 11 11 12 12 10 8 7 9 9 10 10 10 10 10 9 9 10 11 12 13 13 13 12 11 10 9 9 9 9 9 8 7 6 7 7
2 3 3 4 3 3 5 5 4 3 2 3 2 1 4 5 4 2 2 1 3 5 4 5 5 6 6 11 22 29 29 29 27 26 25 23 22 22 22 23 23 24 24 23 23 22 21 21 20 20 19 19 18 17 16 15 15 14 13 13 12 12 11 12 14 12 10 8 8 8 8 8 9 9 9 10 10 10 12 13 14 14 13 12 11 10 9 8 9 9 9 8 6 6 5 6 6
2 4 3 6 4 3 3 4 4 3 3 3 1 2 2 1 2 2 4 5 4 5 3 1 1 2 4 9 19 25 25 25 25 26 25 24 24 23 24 25 25 26 26 25 24 23 21 21 21 20 20 20 19 18 17 17 16 15 14 14 13 13 12 13 14 12 10 9 8 9 9 8 8 8 9 10 11 12 14 14 14 14 13 11 10 9 8 8 8 8 8 7 6 5 5 5 5
2 3 5 6 4 2 3 3 3 2 4 4 2 1 2 2 0 2 6 6 3 6 6 7 8 9 9 8 15 21 22 22 22 24 24 24 24 24 25 26 27 26 25 25 25 25 23 21 21 21 21 21 20 19 19 18 17 15 14 14 14 13 14 15 14 12 11 10 10 10 9 9 8 7 9 10 12 13 13 14 14 13 12 10 9 8 8 8 8 8 7 6 5 4 4 5 5
2 3 4 4 4 3 4 3 1 2 3 3 3 3 2 1 1 3 7 6 5 6 8 10 11 13 14 13 16 18 19 20 20 22 23 24 24 24 25 25 26 24 24 26 27 26 24 22 20 21 22 21 21 19 18 18 17 16 14 14 15 14 15 16 15 15 13 12 12 11 10 9 9 8 8 10 12 12 12 12 12 11 10 9 8 7 7 8 8 7 7 5 4 2 2 2 3
2 3 2 4 3 4 3 2 1 3 5 3 3 3 0 2 2 3 6 6 7 6 7 9 12 17 21 19 17 15 15 18 21 24 25 26 26 26 26 26 26 26 25 26 28 26 25 24 21 21 23 21 21 20 18 17 16 16 15 14 14 15 16 17 17 16 14 14 14 13 12 10 10 10 9 10 12 12 12 12 11 10 9 8 7 6 7 8 8 7 6 4 2 1 1 1 1
2 3 3 4 3 4 4 3 1 4 4 2 1 1 0 2 2 1 3 7 8 6 6 8 14 20 20 17 16 16 18 20 23 26 28 28 29 29 27 27 28 28 27 26 28 28 26 25 23 23 23 22 21 21 20 18 16 15 15 15 14 13 15 17 17 16 14 15 16 15 13 11 12 12 10 10 12 12 12 11 10 9 9 8 7 7 8 8 7 6 5 3 2 3 3 3 3
3 5 4 3 2 3 3 2 1 1 1 2 1 1 4 6 2 0 5 9 7 7 5 6 12 15 15 14 15 15 16 20 21 23 25 26 28 28 26 27 28 29 29 29 28 28 28 26 25 25 25 24 22 22 21 19 17 16 16 16 14 12 13 16 17 15 14 15 16 15 14 12 13 13 12 12 13 14 13 12 11 10 9 9 7 7 8 8 6 4 5 5 4 4 4 3 3
5 5 3 3 2 3 3 2 1 2 2 0 1 5 7 5 2 2 8 10 7 2 3 5 10 12 12 13 14 15 14 17 20 21 23 24 24 26 26 27 28 30 32 31 30 30 29 28 27 27 26 25 24 23 23 20 18 17 17 16 15 13 12 14 16 15 14 15 16 15 15 13 13 15 14 14 16 16 14 13 12 11 10 9 8 7 8 7 4 4 6 7 6 6 7 6 4
5 6 4 4 3 3 2 2 3 2 2 3 3 7 8 4 2 3 7 8 4 3 4 5 9 12 12 12 12 16 16 19 23 21 21 21 23 26 28 28 29 32 32 32 33 32 31 30 28 27 26 26 26 25 24 22 20 19 18 16 17 16 13 14 16 15 15 16 16 17 17 17 17 17 17 16 17 17 16 15 14 11 11 10 8 9 9 7 5 5 6 7 6 6 6 7 6
5 7 3 3 1 2 1 2 4 1 2 4 5 6 7 3 2 5 7 6 3 5 6 6 9 10 12 12 11 13 16 21 24 21 21 23 26 28 30 31 31 32 33 35 35 33 32 32 30 28 26 26 27 26 25 23 22 20 19 18 19 18 16 16 17 17 18 18 18 19 20 21 21 19 18 18 17 17 17 16 15 13 12 11 10 10 10 9 8 7 7 7 6 4 3 4 5
5 7 5 3 2 3 4 3 3 2 2 3 4 5 10 7 6 7 8 7 3 5 6 8 9 9 10 11 9 10 15 19 20 22 26 28 29 29 31 33 33 33 34 35 35 35 35 34 32 31 28 28 28 27 26 24 24 22 21 21 21 20 19 20 20 19 19 19 20 20 21 23 22 18 18 17 15 15 17 17 16 15 14 12 12 12 11 11 10 10 10 10 7 6 5 4 5
4 5 4 3 1 4 5 3 2 3 3 1 4 5 10 8 8 9 9 6 4 4 7 8 8 8 8 8 8 9 12 17 21 26 30 30 30 30 32 32 32 34 34 34 35 36 36 35 35 33 32 31 31 29 28 27 26 25 24 24 24 23 23 23 23 21 20 20 20 19 19 23 23 19 18 16 14 15 17 18 17 17 15 14 14 13 12 12 11 12 11 11 8 8 8 6 7
3 2 1 3 3 3 4 4 5 4 4 4 6 5 11 6 6 9 7 6 6 7 8 8 8 7 7 7 8 9 11 18 24 28 30 30 31 31 32 32 31 33 34 35 37 37 37 36 35 35 35 34 33 32 31 29 28 27 26 26 26 26 25 25 25 23 22 21 20 19 19 22 24 21 19 18 17 17 17 18 18 18 16 15 16 15 14 14 12 11 10 10 9 9 9 8 8
2 3 2 3 4 2 4 4 8 8 4 5 7 5 10 6 7 9 7 6 7 7 8 8 8 8 7 7 8 8 10 17 22 26 30 31 32 32 33 33 31 32 34 35 37 37 37 37 36 36 36 36 36 35 33 31 29 28 28 26 26 27 26 26 27 26 24 22 21 20 20 22 24 23 21 21 20 19 18 18 18 18 17 16 16 16 16 15 13 12 11 11 10 10 9 9 9
3 4 3 4 4 2 4 4 8 11 5 3 7 6 7 4 5 6 4 5 6 6 8 8 9 9 8 7 8 8 8 11 15 22 30 32 33 34 35 35 34 33 34 35 36 37 38 37 37 36 36 36 36 35 34 32 30 29 29 28 26 27 27 27 28 28 26 24 23 22 21 22 24 25 23 23 23 22 20 19 19 19 18 18 17 18 18 16 14 13 13 12 12 13 12 11 11
4 3 2 2 4 4 3 4 5 8 6 6 8 9 13 8 4 5 2 4 6 6 8 8 9 8 8 8 8 8 9 9 12 21 30 32 33 35 35 37 37 36 34 34 36 38 38 38 38 38 36 35 35 35 35 33 32 30 30 29 28 27 27 27 28 29 28 27 25 24 23 23 25 27 26 25 25 24 22 21 21 20 20 20 19 20 19 17 16 15 14 14 14 15 14 13 12
6 5 3 1 3 5 6 4 4 6 7 8 6 8 19 15 7 9 6 3 6 7 8 8 8 8 7 7 7 8 10 10 14 24 31 32 33 34 35 36 37 37 35 34 35 37 38 38 38 38 37 36 35 35 35 34 32 32 31 30 29 28 28 27 28 31 32 30 28 26 25 24 26 28 29 28 27 26 24 23 23 23 22 22 22 22 21 19 18 17 15 16 16 16 15 13 12
9 7 6 4 4 5 6 6 5 5 6 8 8 10 18 15 9 11 10 4 6 8 8 7 7 6 6 6 7 9 10 11 19 28 29 31 34 34 35 35 36 37 36 35 35 36 37 37 37 38 38 37 36 35 35 34 33 33 33 32 31 31 30 29 30 33 34 33 31 28 28 27 26 28 30 30 29 28 27 26 26 25 25 25 25 25 23 21 20 19 18 18 17 16 14 13 12
10 8 7 6 5 4 4 5 6 4 5 7 10 11 16 15 11 12 9 5 7 9 8 8 8 7 6 7 9 11 11 13 21 25 24 28 33 33 33 34 34 36 37 37 36 38 39 38 38 39 39 38 37 37 36 36 35 35 34 35 36 35 34 33 32 33 35 36 34 32 31 29 28 28 30 32 32 30 28 27 28 28 27 27 27 26 25 23 22 21 20 19 19 18 17 15 14
8 7 6 5 5 5 5 4 5 3 4 6 7 9 15 17 12 9 5 5 9 11 9 10 11 10 8 9 11 11 10 11 16 17 19 25 30 31 33 33 34 36 38 38 38 39 40 40 41 40 39 39 39 39 38 38 38 37 36 36 36 36 36 36 35 36 36 36 36 35 33 31 30 29 29 32 34 32 30 29 29 30 29 28 28 26 25 25 23 22 22 21 20 19 18 17 17
6 5 5 5 4 3 5 4 3 3 4 5 5 6 12 16 13 9 7 9 11 10 10 12 12 11 11 11 11 10 9 10 11 12 16 24 28 30 31 32 35 38 38 38 39 39 40 41 42 41 40 40 41 40 40 39 39 38 36 34 33 33 34 36 36 35 35 36 37 37 36 34 32 31 30 31 33 34 33 31 30 30 30 30 29 26 25 26 25 24 24 23 21 20 18 19 19
5 4 5 5 3 3 4 4 2 3 3 2 3 4 7 11 10 9 10 11 11 11 12 13 11 12 14 13 11 10 12 13 12 12 14 20 25 28 29 32 35 36 36 37 39 40 40 42 43 42 41 41 42 41 41 39 37 36 35 33 31 29 30 32 32 33 34 36 36 37 38 37 35 33 32 31 32 34 34 33 32 32 32 31 30 28 27 27 26 26 26 25 23 21 19 19 20
5 5 6 5 5 7 5 3 1 1 2 0 1 4 6 8 10 12 9 7 10 13 11 12 12 13 13 12 12 13 14 14 14 14 13 16 22 26 31 35 36 35 35 38 41 42 42 42 42 41 41 41 41 41 41 39 36 34 33 31 28 27 28 29 30 33 35 36 37 38 38 38 37 35 34 33 33 33 34 35 35 34 34 33 32 31 30 29 28 28 28 27 26 24 21 20 21
6 8 9 7 8 8 5 3 3 3 4 3 1 3 6 6 9 12 7 3 8 9 8 13 14 13 12 12 14 14 14 13 13 14 13 15 21 27 31 35 35 35 37 40 42 44 44 42 41 40 40 40 41 41 40 39 37 35 34 32 29 28 28 31 34 37 37 38 39 39 38 38 38 37 36 35 35 34 34 35 35 36 36 35 35 34 32 31 30 30 29 29 29 27 24 22 22
7 9 11 9 9 7 5 5 4 1 4 3 2 5 6 5 5 9 6 5 9 8 7 13 13 11 12 12 14 14 13 13 12 12 12 14 20 24 27 32 35 36 40 42 42 42 42 41 41 41 40 40 40 40 39 39 38 37 36 36 35 33 32 34 37 37 37 39 39 38 39 39 39 39 38 38 37 37 36 35 35 35 36 36 36 36 35 33 32 31 31 31 30 29 27 25 24
5 7 13 11 8 7 5 6 4 3 2 3 1 3 5 6 6 8 7 7 10 10 11 13 11 11 13 13 14 14 14 14 12 12 12 14 19 24 27 32 36 39 41 41 41 41 41 42 42 41 41 40 39 39 39 40 40 38 38 37 37 37 36 35 34 34 35 35 36 37 38 39 40 40 40 40 40 39 38 37 36 36 37 37 37 37 36 35 34 33 32 31 31 30 30 29 26
4 6 12 10 7 5 4 5 3 1 2 4 4 3 3 7 5 5 5 6 9 12 13 13 12 13 14 14 15 14 14 14 12 13 14 14 20 26 30 33 37 40 41 41 42 42 42 42 40 39 40 40 39 39 40 41 41 40 38 37 37 37 38 35 32 31 32 32 34 36 36 37 39 41 42 42 41 41 40 40 39 38 38 38 37 37 37 36 35 34 33 33 32 32 31 30 29
3 7 8 4 4 4 4 4 2 2 2 7 7 5 3 7 5 4 3 4 8 10 10 11 13 13 12 12 14 13 12 11 11 12 13 16 22 28 32 33 36 40 42 41 41 41 40 39 38 38 40 41 40 40 41 42 43 41 39 39 38 37 35 33 31 31 31 31 33 35 35 37 38 39 41 42 42 42 41 41 41 40 40 39 39 38 37 37 36 36 35 34 34 33 33 32 30
5 6 7 6 3 4 3 2 3 1 6 9 9 10 6 6 4 5 5 5 8 9 9 10 11 11 11 11 11 11 10 9 9 10 11 16 23 28 30 31 34 38 40 38 37 37 37 37 38 40 42 41 40 41 42 43 43 43 43 41 39 37 33 31 32 32 32 32 34 36 36 37 38 38 40 41 43 42 42 42 42 42 41 40 40 40 39 38 37 36 35 35 35 35 35 33 32
8 6 6 4 1 2 1 1 2 4 8 6 10 12 9 8 6 3 5 6 6 8 9 11 11 11 10 10 9 9 9 9 9 8 9 12 16 20 24 27 31 34 34 34 35 36 36 36 37 39 41 41 41 41 42 43 43 44 45 43 41 39 35 33 33 34 34 33 35 36 35 36 37 38 39 40 42 42 42 42 42 42 42 42 42 41 41 39 38 37 37 37 37 37 36 35 33
5 5 7 5 3 2 4 3 4 7 6 2 6 10 7 10 8 4 9 11 10 11 11 11 11 9 9 8 8 8 7 8 8 8 9 9 10 13 19 24 28 29 30 33 35 35 35 36 37 38 40 42 41 41 41 42 43 45 45 44 42 40 37 36 35 35 36 35 36 35 35 35 36 38 40 41 43 43 42 42 42 43 44 44 43 42 41 41 39 39 38 38 38 37 37 36 35
7 8 9 8 6 5 7 6 5 6 4 1 3 4 3 6 5 7 13 16 14 11 11 10 9 9 10 9 8 7 6 7 7 8 8 9 9 13 18 24 27 28 31 34 35 36 36 36 36 37 40 41 39 40 40 41 43 45 44 43 42 40 38 38 38 38 37 36 36 36 36 37 37 39 41 42 43 42 42 43 43 44 44 44 43 43 42 41 40 40 39 39 38 37 36 35 35
13 10 9 9 7 5 7 7 7 6 1 1 3 3 4 4 3 7 11 12 11 9 9 9 8 9 9 9 8 7 7 7 6 7 8 8 11 15 19 22 25 28 31 33 34 35 35 35 36 38 40 40 38 38 39 39 41 42 41 41 41 40 40 39 39 39 39 38 37 36 37 37 38 39 39 40 40 39 40 42 43 43 43 43 43 43 42 41 41 40 40 39 39 38 36 35 35
8 5 6 10 6 4 3 3 6 4 1 2 4 3 4 5 6 8 7 9 9 10 10 8 9 9 7 8 9 8 8 8 6 7 8 9 12 16 18 21 24 26 28 30 31 32 33 35 36 38 41 40 36 37 38 39 40 39 38 40 40 40 40 40 40 40 40 38 37 36 37 37 36 37 37 37 37 38 39 40 41 43 43 42 42 42 42 41 41 40 40 40 39 38 36 36 36
5 5 8 7 4 5 4 1 0 4 2 4 3 6 6 3 8 11 10 12 13 11 8 7 9 8 6 8 8 8 9 8 6 6 8 9 10 14 18 22 24 26 28 29 32 34 35 37 37 37 39 38 35 36 38 39 39 38 38 40 41 41 41 41 42 41 39 37 36 36 37 36 36 37 37 37 37 37 38 39 41 42 42 42 41 41 41 41 41 41 40 40 40 38 37 37 37
6 9 8 4 3 2 4 1 1 3 3 4 5 12 8 1 6 6 7 14 17 13 7 6 9 7 6 8 8 9 9 7 6 7 7 7 8 12 18 21 25 28 31 33 35 37 37 38 38 38 39 38 37 38 39 41 41 41 41 42 43 43 42 42 42 41 38 36 36 38 37 37 37 37 37 37 37 37 38 39 40 41 41 41 41 41 41 41 41 41 41 40 40 39 37 36 37
2 7 8 6 3 4 4 4 3 3 5 3 5 11 7 7 9 4 6 13 16 16 10 7 10 10 8 8 9 10 8 5 6 7 7 7 7 12 16 19 22 25 27 30 32 32 34 36 37 38 40 40 41 41 41 42 43 43 43 43 42 42 41 41 41 40 37 36 38 38 38 38 38 37 37 37 37 37 37 38 39 39 40 40 41 41 41 40 40 40 40 40 40 39 38 37 36
2 2 6 4 3 5 6 6 4 5 6 5 4 5 5 8 9 9 11 11 10 11 9 8 11 10 9 9 9 9 7 6 7 7 8 7 8 12 14 15 16 16 19 21 23 25 29 33 34 36 38 39 39 39 40 41 41 41 40 39 39 39 40 40 39 38 38 39 40 39 38 39 38 38 38 38 38 38 38 38 39 39 39 39 40 40 40 40 40 40 40 40 41 40 38 37 35
5 7 9 8 5 2 3 6 4 3 5 5 4 6 7 6 5 11 15 12 11 13 11 10 10 9 9 9 9 8 7 7 7 7 7 7 7 9 10 11 12 13 15 16 18 21 24 28 30 32 34 34 34 35 36 37 37 37 37 37 37 38 38 38 37 37 38 40 40 39 38 38 37 38 39 38 39 39 39 39 39 38 39 39 39 39 38 39 39 40 41 42 42 41 38 37 35
14 12 13 14 11 6 5 7 3 2 4 4 3 8 10 5 6 10 14 14 16 16 12 9 8 8 10 9 9 8 7 8 7 6 6 5 5 5 5 8 9 11 13 14 15 17 18 21 24 27 29 30 30 30 31 32 33 33 36 37 37 36 35 35 35 36 37 38 38 39 38 38 38 39 38 38 39 39 39 39 39 38 38 38 39 38 39 39 40 40 41 40 40 39 37 37 36
Wind_Direction
344 345 345 338 338 350 15 64 60 335 62 42 318 95 289 261 147 79 35 6 44 356 326 37 44 79 93 110 129 122 88 140 164 152 203 209 155 159 168 165 159 156 154 151 152 152 149 149 145 142 137 132 129 123 118 117 113 114 120 123 115 113 115 113 119 125 126 120 115 112 109 110 113 115 111 108 108 106 104 103 104 103 101 99 96 93 91 90 89 88 92 94 95 96 97 99 100
345 346 350 343 353 23 308 66 86 337 40 56 319 119 274 332 53 103 173 125 130 154 111 87 77 82 98 116 125 99 42 344 158 143 116 138 146 159 168 164 160 158 155 154 154 152 150 149 147 144 139 135 131 126 124 120 116 123 125 121 118 117 116 116 119 123 124 118 116 116 114 113 114 117 116 113 110 110 110 110 109 105 103 100 96 93 91 90 88 88 93 96 95 95 96 98 97
345 342 348 351 9 46 30 42 81 44 59 89 285 277 347 66 107 197 193 147 170 162 125 98 82 80 99 90 52 71 73 317 73 85 110 138 144 162 169 166 161 159 156 155 154 153 152 150 148 146 143 139 134 131 129 125 124 129 126 122 123 122 120 120 120 123 123 119 117 117 117 115 113 113 116 116 115 117 118 115 111 107 104 101 97 95 93 92 90 90 96 98 97 97 99 99 96
344 338 343 3 26 30 52 44 99 104 84 168 223 283 296 141 158 193 219 255 266 145 124 89 64 14 85 98 68 70 139 282 79 102 131 153 158 164 166 162 160 158 157 157 156 155 153 151 149 148 146 142 138 132 128 126 127 127 125 125 125 122 121 120 122 124 123 123 120 118 117 115 113 112 113 113 113 118 120 116 113 109 105 102 100 98 95 97 97 96 102 103 101 102 103 101 98
342 339 347 48 67 27 75 66 79 93 170 187 155 270 257 189 165 182 248 298 325 53 94 94 79 337 52 99 132 107 149 130 149 136 129 158 160 159 159 158 159 157 158 159 160 159 154 153 150 151 148 143 139 133 128 129 131 128 127 127 125 122 123 123 124 126 126 127 124 120 118 115 115 114 114 113 114 118 119 115 111 108 102 100 100 98 95 95 97 99 105 107 108 109 106 103 101
347 356 30 71 89 117 86 60 15 322 234 168 148 225 225 217 176 162 129 27 6 45 83 81 112 108 59 11 34 128 185 131 155 154 136 152 156 155 157 157 159 158 160 162 164 165 159 157 153 153 150 146 142 137 133 133 134 130 130 130 128 127 129 131 129 130 131 130 126 123 119 118 117 116 117 117 119 118 118 114 107 105 102 100 99 98 96 93 93 96 104 111 115 114 109 105 103
354 6 39 59 49 52 83 110 223 271 233 165 162 181 194 213 189 140 100 70 20 30 66 86 127 105 73 297 31 342 250 182 156 149 145 153 155 157 158 156 159 158 161 163 165 170 166 163 159 156 154 151 145 142 139 137 137 134 134 133 132 134 134 134 133 132 133 132 132 130 125 124 121 116 119 121 124 120 115 114 109 107 104 103 102 101 99 97 97 97 103 110 115 114 113 109 106
355 11 21 73 34 25 83 155 240 216 70 156 171 176 181 189 180 126 103 119 77 24 60 119 129 95 352 23 64 322 283 180 162 146 147 155 159 159 160 160 160 159 161 163 166 172 169 168 163 160 160 155 146 144 147 144 141 137 136 135 132 136 137 136 137 137 136 137 137 136 131 131 126 118 119 123 126 123 117 116 114 112 110 108 107 105 103 102 101 102 104 107 109 112 114 112 108
1 31 17 76 47 22 50 320 293 235 263 119 183 195 183 183 171 127 110 92 143 88 51 187 119 104 149 53 64 311 59 160 162 149 147 155 163 165 167 168 165 161 162 164 169 174 167 168 166 163 164 157 150 148 152 149 143 140 137 138 137 142 146 144 143 139 136 137 133 132 131 130 127 120 116 117 122 126 122 119 117 116 116 113 111 110 110 111 107 107 106 104 104 106 110 112 108
14 33 56 76 57 17 1 310 300 242 219 176 223 214 189 185 152 127 123 123 147 102 55 258 76 105 135 85 92 298 121 152 156 152 150 153 163 167 170 172 170 163 164 167 168 171 165 166 167 167 165 157 158 155 152 149 145 145 143 145 148 153 152 144 142 136 132 135 133 130 130 129 128 124 118 118 121 124 121 118 117 117 118 116 117 119 120 118 112 109 106 104 103 101 102 103 105
16 360 78 81 59 50 328 280 297 272 282 336 257 235 213 182 122 112 113 124 176 115 158 66 80 116 107 89 255 206 152 151 156 157 156 158 162 166 167 169 170 167 167 167 166 169 165 166 168 167 165 163 165 159 151 149 150 155 156 158 154 153 149 140 139 136 135 135 133 130 129 130 132 130 126 130 129 124 123 120 118 116 118 120 123 125 125 121 114 111 107 105 102 97 94 93 98
45 330 59 94 126 176 191 226 286 278 314 345 183 255 209 161 123 132 124 134 165 109 192 135 136 143 88 56 231 170 157 157 163 159 161 169 171 170 168 167 167 170 171 169 170 171 167 168 169 167 168 170 169 162 155 153 162 166 166 169 155 149 149 145 144 141 141 137 136 136 137 140 141 137 135 138 134 127 128 123 121 119 118 124 126 125 127 123 114 111 109 104 99 92 89 89 94
94 327 80 139 185 161 180 196 265 284 324 302 209 274 110 130 145 160 140 126 140 116 244 184 143 116 88 210 155 168 174 167 166 162 168 177 177 174 170 168 168 172 175 178 177 173 172 171 171 170 168 172 173 169 163 164 173 173 169 171 157 153 155 151 150 147 145 147 152 153 154 153 148 145 143 143 140 136 137 132 127 126 126 131 130 127 128 122 116 114 110 104 97 90 88 91 96
111 144 105 199 215 132 169 198 247 176 255 259 244 292 43 90 170 161 129 110 160 169 176 154 137 111 102 180 143 194 193 174 168 168 175 176 175 172 169 169 170 174 180 187 183 177 175 175 176 172 169 172 176 174 172 174 180 178 174 173 164 162 162 158 159 158 159 166 172 169 163 159 154 153 154 153 152 150 150 145 140 142 142 138 133 129 128 123 119 117 111 106 98 93 95 99 101
126 128 89 146 322 95 195 240 187 171 214 248 250 290 57 55 132 123 128 130 196 230 129 95 136 139 162 170 193 207 186 174 170 170 167 165 169 168 168 170 171 176 181 186 183 179 178 179 179 175 172 174 177 177 177 181 184 184 181 181 179 176 172 169 171 170 170 176 180 176 164 160 159 157 159 162 162 163 164 161 156 155 147 138 134 132 130 126 123 120 114 109 102 99 99 100 101
116 102 66 132 269 188 224 217 118 150 218 234 246 143 84 344 83 107 199 144 140 301 25 55 136 133 163 174 201 186 174 168 167 167 159 156 162 165 169 170 173 175 179 185 184 183 182 182 183 180 177 176 178 177 178 183 187 188 187 188 188 187 183 179 178 172 165 167 174 177 169 166 168 164 164 168 169 173 175 172 166 153 144 139 137 135 133 129 126 123 119 113 108 103 91 83 86
77 77 55 265 218 180 219 196 148 183 235 253 272 167 126 343 348 135 287 89 106 35 36 345 333 54 163 208 189 168 165 164 162 163 159 154 158 163 168 171 173 175 180 186 187 186 185 187 187 185 182 180 181 179 181 185 187 190 191 190 187 187 187 183 180 173 168 167 171 180 179 175 177 176 174 174 173 176 177 171 161 149 144 143 140 138 134 131 128 125 123 119 112 100 81 69 69
77 103 121 241 211 189 202 192 192 177 200 255 277 174 137 143 217 184 38 52 75 63 28 356 4 20 82 155 154 157 161 162 162 162 163 161 160 164 169 173 176 178 181 184 189 189 187 190 190 189 187 185 184 184 185 186 186 190 193 193 189 185 187 186 184 179 175 172 171 179 183 181 181 180 177 176 175 175 172 162 153 148 146 145 143 140 135 132 129 123 121 120 117 101 79 66 63
128 131 142 223 213 207 204 184 191 170 183 237 298 335 132 156 179 138 130 130 110 98 21 2 31 24 59 118 141 152 160 163 165 166 166 170 169 170 173 177 180 181 183 184 187 189 190 190 191 192 191 189 188 188 189 188 187 190 194 197 196 194 193 188 189 188 180 178 177 174 175 177 178 178 177 177 176 170 162 155 151 151 151 150 147 143 138 135 131 124 119 114 110 102 82 62 61
167 132 164 224 221 232 222 178 185 191 176 158 290 338 68 180 185 145 158 154 156 160 167 91 114 184 126 131 144 152 162 166 170 171 172 178 179 179 178 180 183 185 188 187 186 189 191 191 191 195 195 193 192 192 191 191 190 195 199 200 203 203 198 189 192 195 184 184 182 173 173 170 171 175 175 173 171 165 158 155 156 156 156 155 153 149 144 141 135 128 121 112 99 98 90 65 61
160 148 181 213 195 200 234 196 187 175 152 150 188 91 81 267 198 142 146 136 214 224 196 185 185 179 164 161 158 159 166 170 176 178 178 183 185 187 186 186 186 187 191 192 189 190 192 191 192 196 198 197 196 196 194 194 194 201 206 204 208 208 201 193 192 193 186 188 184 178 179 174 172 174 175 171 167 165 162 161 161 161 162 161 161 160 155 146 138 132 127 117 98 86 95 75 55
165 214 187 193 169 177 242 217 167 102 110 98 123 153 168 278 9 169 155 155 224 227 206 193 177 169 169 171 169 169 172 176 181 183 185 187 189 192 193 192 191 190 192 195 194 193 194 193 194 198 199 199 199 199 195 196 200 206 213 211 213 213 206 200 197 195 191 190 188 188 192 189 187 185 185 182 176 173 171 170 169 169 170 170 173 171 164 153 139 132 132 129 115 83 116 90 39
182 249 208 209 190 166 212 201 144 81 89 88 149 189 360 30 306 217 170 197 226 223 202 181 172 174 172 168 168 175 180 184 188 189 190 190 192 194 196 196 196 195 193 196 197 195 196 194 196 200 200 200 202 201 196 199 205 212 218 216 217 217 211 206 203 202 198 195 195 199 205 209 205 198 201 197 190 184 181 182 180 181 182 183 184 179 170 157 143 135 139 146 162 230 240 230 323
142 231 246 223 212 177 185 176 129 86 113 208 175 91 32 173 268 257 199 238 244 248 227 175 173 173 166 165 173 183 188 190 194 195 194 194 196 196 196 198 199 200 197 198 197 196 198 196 198 204 203 203 203 201 199 202 208 212 214 215 217 218 216 213 209 206 201 198 200 205 213 220 212 205 213 213 203 195 191 191 190 193 196 196 194 182 170 159 151 152 159 168 192 239 254 255 257
191 219 243 205 213 217 208 156 63 10 251 277 16 304 244 205 182 220 245 255 254 243 229 165 161 162 164 175 184 187 191 195 199 200 199 201 200 198 198 200 201 203 202 200 198 199 200 198 201 206 207 205 203 202 201 204 207 207 207 211 215 218 221 218 211 206 200 197 201 209 216 215 209 209 222 229 216 203 197 198 198 199 201 203 199 182 171 166 169 190 205 199 202 231 239 248 259
216 198 211 189 205 224 208 174 220 308 256 281 338 277 267 234 182 264 247 245 254 222 144 139 150 162 177 184 188 189 191 197 200 201 204 205 202 201 202 202 203 205 205 202 200 202 202 201 204 208 209 208 205 202 202 204 206 206 206 210 214 216 223 216 207 208 206 203 206 214 219 216 213 219 231 236 223 209 202 203 204 203 205 206 200 182 174 178 196 223 216 207 219 249 258 252 245
195 174 199 215 205 211 167 176 244 303 255 212 220 262 276 275 220 252 260 248 234 134 134 151 160 173 187 190 193 193 194 198 199 199 203 207 205 204 205 205 206 207 207 205 203 203 201 202 205 208 209 208 205 203 204 206 209 211 210 211 212 212 218 214 209 214 215 215 216 218 222 220 220 227 234 233 221 214 211 208 207 207 209 207 198 183 181 193 208 213 203 210 243 266 266 244 224
162 160 185 257 295 274 192 189 240 287 269 201 173 260 281 284 210 217 254 258 165 151 172 176 180 187 192 195 195 194 199 202 199 195 200 207 208 206 207 207 207 207 207 207 205 203 201 202 205 208 208 206 204 205 207 210 212 214 214 211 209 211 217 216 215 219 219 219 223 223 224 223 223 227 230 226 217 217 216 213 210 211 212 205 194 188 191 205 212 217 218 227 248 243 214 206 207
150 158 166 237 310 283 232 206 223 170 217 199 124 297 277 243 233 214 228 243 170 164 193 190 199 202 198 198 195 197 203 200 196 200 205 209 210 209 209 210 208 207 208 208 206 204 204 204 206 207 207 205 205 209 212 214 213 215 218 215 211 214 220 221 217 219 220 219 223 224 225 226 225 221 219 217 215 218 217 215 215 214 214 203 195 195 199 206 215 230 238 237 234 215 206 202 210
153 167 157 181 254 263 230 195 189 174 208 193 92 284 264 240 240 229 222 229 181 195 217 207 209 209 205 200 195 204 203 197 199 206 209 209 211 212 212 212 210 209 208 207 207 206 206 207 207 207 207 208 209 212 215 216 217 220 220 216 216 220 224 223 219 219 220 217 220 223 226 228 222 212 209 213 217 220 217 217 219 217 212 203 198 202 206 211 223 237 237 232 223 218 225 220 218
134 156 157 166 200 224 220 192 167 192 222 134 108 251 259 241 236 242 233 210 187 215 230 218 217 214 211 205 200 208 205 203 207 208 209 210 211 213 214 214 212 211 209 207 208 208 207 207 208 207 208 210 212 214 216 218 220 222 220 215 218 223 224 224 221 220 219 217 219 224 227 224 215 208 209 214 217 222 221 218 218 213 205 201 204 208 213 220 230 234 224 219 217 222 233 222 213
145 179 194 181 200 222 265 224 174 199 231 130 129 242 267 249 229 242 242 216 194 213 232 223 223 220 213 213 208 213 213 212 213 212 212 212 211 213 215 216 214 213 211 209 209 208 208 208 208 209 209 212 213 215 217 218 219 219 217 215 218 221 222 224 222 221 220 218 220 224 223 215 210 208 209 214 216 220 222 216 213 207 200 203 210 212 215 221 229 228 219 220 221 225 233 215 207
230 198 180 177 192 218 290 278 207 206 212 168 186 232 273 266 230 239 244 221 202 215 235 224 221 222 215 214 212 214 218 217 218 219 217 213 212 213 215 216 215 215 215 213 211 208 208 209 209 210 212 213 215 216 217 218 217 216 215 215 217 220 222 223 222 221 221 221 222 223 218 211 209 208 208 214 216 217 219 213 207 204 203 208 213 212 215 223 230 228 224 225 224 225 222 207 206
209 184 165 173 184 194 237 286 258 212 204 225 215 235 254 253 244 256 258 178 190 222 239 230 222 223 219 216 216 215 215 215 219 221 219 215 214 213 214 216 216 217 217 216 214 211 210 210 210 211 214 216 216 217 217 218 217 216 215 216 218 220 222 224 221 219 219 222 223 222 219 213 211 209 209 212 214 216 219 216 209 206 209 213 215 217 222 230 231 229 226 221 219 222 218 207 207
178 172 167 152 186 204 215 239 255 192 200 230 209 236 252 252 253 264 273 179 183 226 235 237 233 227 228 224 223 221 217 219 223 223 220 216 215 215 214 215 215 217 217 217 216 213 211 211 211 213 215 216 217 218 218 217 217 216 216 216 218 221 224 226 221 218 219 222 223 222 220 216 213 212 210 212 213 215 220 221 215 211 214 217 218 220 226 230 227 224 222 216 214 217 220 215 212
164 176 182 177 188 221 226 232 248 189 190 228 209 227 251 254 253 257 267 230 207 237 241 246 248 238 235 228 229 228 224 225 228 227 220 215 216 216 215 214 215 216 216 217 216 214 212 211 212 214 216 217 217 216 216 215 214 214 214 214 217 220 223 224 222 218 218 221 223 222 221 218 216 214 213 213 215 216 219 221 219 215 216 219 221 222 225 227 223 221 219 217 215 212 215 218 216
166 175 190 191 192 234 238 234 257 204 189 233 217 228 252 256 250 248 258 252 237 243 241 246 249 247 239 229 231 228 226 230 232 231 222 216 217 216 215 214 213 214 214 214 214 214 214 213 213 214 216 216 215 214 213 213 212 211 211 212 215 217 220 222 221 220 218 221 223 223 222 221 219 217 216 216 217 219 219 219 219 217 217 220 223 225 227 227 224 222 220 220 219 213 213 216 216
173 177 187 197 199 233 245 235 251 187 180 249 232 231 253 256 252 254 259 254 247 238 234 244 244 244 243 234 234 230 230 236 236 234 222 217 217 215 214 212 211 212 212 212 212 214 215 214 216 216 215 214 215 215 214 214 214 213 212 213 216 217 219 220 221 220 219 220 223 223 224 223 223 221 220 219 219 221 222 221 220 219 220 221 225 228 228 227 225 223 220 217 217 216 217 217 213
177 168 176 200 198 231 271 266 251 173 181 253 245 225 254 261 260 260 249 239 247 241 230 237 237 238 241 236 235 232 235 239 234 230 221 217 216 213 212 211 212 214 213 212 212 214 214 214 217 216 214 214 215 216 216 216 217 217 217 217 218 219 221 223 224 224 223 223 223 224 224 225 226 225 224 223 223 223 224 225 224 222 223 223 226 228 226 225 226 224 221 219 216 214 218 219 215
189 157 174 207 174 166 253 267 237 194 188 210 229 231 259 271 275 264 243 233 248 250 238 238 234 232 237 237 235 229 230 234 231 227 220 215 215 212 210 211 214 215 214 213 212 213 213 214 216 215 214 214 215 216 217 218 219 219 220 222 223 224 226 228 229 229 228 227 227 226 225 225 227 228 228 228 227 226 227 228 228 227 226 226 228 229 226 225 227 226 223 223 221 215 213 215 216
209 189 189 196 179 186 215 232 173 355 301 250 287 298 274 257 263 262 248 225 243 250 246 249 244 236 241 243 240 233 231 232 228 225 219 211 212 211 209 211 213 214 214 214 213 214 214 215 216 215 214 214 215 216 217 217 217 217 217 219 223 225 228 229 229 229 229 229 229 228 226 225 226 229 230 230 230 230 230 231 232 231 230 229 230 231 231 229 229 229 227 226 225 221 216 213 214
215 213 200 182 182 198 192 156 107 34 306 271 194 278 275 253 256 261 262 234 247 251 243 249 249 243 242 244 243 239 236 236 230 226 219 210 212 211 210 211 211 212 215 217 217 216 216 216 216 215 215 215 216 217 217 216 214 213 212 212 215 218 220 222 224 226 225 226 228 228 227 226 226 227 229 230 231 231 231 232 233 233 232 231 231 232 234 233 232 230 229 228 228 228 225 217 213
218 204 187 181 175 183 168 145 139 166 254 277 166 213 270 296 271 260 260 249 256 259 244 246 249 246 240 238 241 238 235 236 233 230 222 212 212 211 211 211 209 212 215 218 219 219 219 218 217 216 215 216 216 216 216 215 214 214 214 215 217 218 219 223 225 226 226 227 228 228 228 227 227 227 228 230 231 231 232 233 233 234 233 232 232 232 233 234 234 233 232 231 230 230 227 220 217
228 170 166 183 170 164 165 151 177 219 257 300 194 182 273 281 256 254 253 250 265 266 253 250 246 241 241 239 239 235 233 231 228 229 223 215 213 211 212 211 211 214 216 217 218 219 220 219 218 217 216 217 216 215 216 215 215 216 217 219 221 223 225 227 228 228 229 229 229 228 228 228 228 228 229 230 231 231 232 232 233 233 232 232 231 232 233 234 234 235 234 232 231 231 229 226 224
250 153 162 182 160 144 140 137 176 317 9 269 220 144 275 266 251 265 255 236 253 257 252 255 251 242 239 239 240 237 233 230 224 224 224 218 214 213 214 213 213 215 217 217 218 219 220 220 219 217 217 218 217 216 216 217 218 218 219 221 223 226 229 231 231 232 232 230 230 230 228 229 229 230 230 230 231 231 232 233 233 233 233 232 231 232 233 234 234 234 233 232 230 230 231 231 231
230 147 135 120 105 90 86 112 116 56 289 242 207 161 237 264 237 220 236 218 235 250 249 247 248 248 244 242 244 243 239 234 227 226 225 220 217 215 216 215 214 216 218 219 219 219 219 218 218 218 219 219 218 218 217 218 219 219 221 222 224 227 229 230 232 233 233 231 231 231 229 229 229 229 230 230 230 231 232 233 232 234 234 233 233 233 233 233 233 234 234 234 232 231 231 232 234
125 117 99 73 47 43 53 74 77 85 257 238 192 170 199 266 247 197 215 214 214 232 247 249 250 255 254 247 247 246 243 237 229 228 227 224 221 218 216 215 216 217 218 219 219 218 218 217 217 218 220 220 219 219 218 220 220 220 222 224 225 227 226 227 229 231 231 229 229 230 229 229 228 228 229 229 230 230 231 232 233 234 235 235 236 235 234 234 233 234 235 235 234 232 232 233 234
128 116 115 114 61 23 31 36 94 219 252 233 177 162 177 237 249 214 244 250 230 227 238 249 249 250 252 252 253 248 243 239 230 226 227 226 222 218 216 217 219 219 217 216 218 218 217 217 217 218 221 220 219 219 219 220 220 221 223 224 226 227 225 225 226 228 229 227 229 229 228 228 228 228 229 229 230 230 229 231 232 232 234 235 236 236 236 235 235 235 235 235 233 232 232 233 233
158 134 142 153 171 195 204 205 194 219 257 292 160 154 182 237 251 257 261 260 246 233 232 240 246 253 263 263 260 255 251 247 234 226 224 221 219 213 211 214 218 218 216 215 217 217 216 217 217 218 221 221 219 219 220 220 220 222 224 224 225 227 226 226 227 229 229 228 229 229 227 227 227 228 228 229 230 230 229 230 230 231 233 234 236 236 237 236 236 235 235 234 233 232 232 232 233
189 172 169 172 172 193 207 206 216 228 250 327 152 162 233 270 271 236 243 252 248 241 241 242 242 249 259 266 268 270 272 258 239 232 226 219 218 214 210 212 214 215 215 216 216 216 216 217 217 219 223 224 220 220 221 221 221 223 224 224 225 226 226 227 228 230 231 230 230 230 229 229 229 230 230 231 232 231 231 232 232 232 234 235 236 236 237 236 236 235 234 233 233 233 233 234 236
195 185 178 186 181 194 202 197 212 222 225 176 183 193 202 213 247 226 229 253 265 262 258 255 252 249 250 264 271 270 273 265 244 235 233 226 222 218 214 214 215 216 216 216 216 216 215 216 216 218 223 225 222 221 222 222 224 225 224 225 226 226 227 228 230 231 232 232 232 232 233 232 233 234 235 235 235 233 233 234 234 234 235 235 236 236 236 236 236 236 234 234 234 235 235 236 238
200 165 180 205 191 174 180 191 201 181 136 206 201 234 217 208 277 279 255 264 266 257 260 264 265 262 252 257 260 257 261 260 245 232 234 235 228 221 217 216 217 218 218 217 217 216 215 217 217 219 223 224 222 222 223 225 227 227 226 227 228 228 229 230 231 233 233 233 234 234 236 237 237 238 239 239 238 236 236 236 235 236 236 236 236 236 236 236 236 235 234 234 235 235 237 238 239
183 172 193 201 144 131 132 233 107 95 191 226 200 253 277 305 285 275 262 270 270 253 245 248 255 258 251 248 250 253 254 249 241 233 232 234 232 225 220 217 217 217 218 219 219 219 217 218 218 219 223 224 222 222 224 225 227 228 229 229 229 229 229 230 232 234 235 235 235 237 238 239 240 241 241 241 241 239 238 237 237 237 237 237 237 237 236 236 236 235 233 232 233 235 237 238 237
160 185 185 146 80 96 102 163 25 76 222 243 214 232 245 262 260 258 232 249 262 257 235 242 259 257 248 250 247 247 248 245 249 251 248 246 240 233 227 223 220 219 220 222 223 223 221 220 220 219 221 222 222 222 223 225 226 227 228 229 230 230 230 232 233 234 236 236 236 237 238 239 240 241 242 242 242 241 240 239 238 238 238 237 237 237 236 235 234 234 233 232 233 235 236 237 235
163 183 167 143 183 209 159 179 192 169 221 259 234 231 226 205 225 236 208 222 243 254 253 255 259 250 241 247 250 251 252 251 256 251 248 248 241 234 229 226 226 224 223 225 226 225 222 221 221 221 222 224 224 223 224 225 225 226 228 229 230 230 231 232 234 234 235 235 237 238 237 238 240 240 241 242 241 241 240 239 238 237 238 238 237 236 236 235 233 232 231 231 232 233 233 234 233
345 150 168 173 196 196 188 195 188 177 211 248 249 234 233 221 208 202 219 225 227 243 252 246 244 241 235 234 242 252 252 244 245 241 238 239 238 237 235 232 232 229 228 228 227 225 223 222 222 221 224 225 225 224 224 225 226 226 228 229 230 231 232 233 234 234 234 235 237 238 237 239 239 240 241 241 241 242 241 240 239 238 238 238 238 236 235 234 233 232 232 232 231 230 229 231 233
169 173 185 197 203 185 198 207 183 152 197 231 255 252 252 244 193 190 212 227 230 234 242 240 238 239 237 234 235 244 250 245 242 239 235 235 239 241 238 236 235 231 230 227 225 226 225 223 222 222 224 224 225 225 225 226 227 227 228 230 231 232 232 233 233 234 234 236 237 238 239 240 240 241 242 242 242 243 243 243 241 239 239 238 238 236 236 235 234 233 233 232 230 227 227 230 232
181 188 189 191 192 174 185 210 193 110 196 191 210 258 262 232 182 193 203 212 226 233 235 235 238 239 237 237 233 231 236 240 238 234 236 242 244 232 217 223 227 226 227 225 222 224 224 224 224 225 226 227 228 228 227 228 229 228 229 231 232 233 234 234 235 235 236 237 238 239 240 241 242 243 243 242 243 244 244 244 242 241 240 239 239 239 239 237 234 233 232 230 227 225 227 229 230